Wind_Speed
20 20 20 21 21 19 18 17 16 15 15 15 14 13 12 11 12 13 14 14 15 16 18 19 19 19 19 19 19 20 21 21 22 23 24 24 24 24 24 24 24 24 24 24
21 22 22 22 22 20 19 18 17 16 16 15 15 15 15 14 14 14 15 16 17 18 20 21 21 21 21 21 20 21 21 23 23 24 25 25 25 25 25 25 25 24 24 25
22 22 22 23 22 21 19 19 17 17 16 15 15 15 15 15 15 16 17 19 20 20 20 21 22 22 21 21 22 22 23 23 24 24 25 26 26 25 26 26 25 24 25 26
22 22 23 22 21 21 21 21 19 18 17 16 17 17 17 17 18 19 19 20 21 21 21 22 23 23 23 23 23 24 24 24 24 24 25 25 25 26 26 26 25 25 26 26
22 23 22 21 21 19 20 21 19 18 19 19 19 18 17 18 19 20 20 21 22 21 22 24 24 24 23 24 25 25 25 25 26 26 25 25 25 26 26 26 27 27 27 27
24 24 24 21 21 21 21 20 20 20 20 20 19 19 19 19 20 21 21 22 23 24 24 24 24 25 25 25 26 26 26 26 27 27 27 27 27 27 27 28 28 28 29 30
24 24 25 23 21 21 21 20 19 19 19 19 20 20 20 21 22 22 23 24 24 25 25 25 25 26 26 27 27 27 27 27 28 28 28 29 29 29 29 30 31 31 31 31
25 25 25 23 23 23 22 21 21 21 21 20 21 22 21 23 23 23 24 24 25 26 27 27 27 27 27 28 28 28 28 28 29 29 30 30 30 30 31 32 32 32 33 33
26 25 23 22 22 22 23 23 22 23 23 23 23 22 23 24 25 26 26 27 28 28 29 28 28 28 29 29 29 29 29 29 30 30 31 31 32 32 33 33 33 33 34 33
27 26 25 24 23 23 23 23 24 24 25 25 25 25 25 26 27 28 28 29 30 30 30 30 30 30 30 30 31 31 31 31 31 31 32 32 33 33 34 34 34 33 33 32
27 26 25 26 25 25 24 23 23 24 25 26 25 25 26 27 28 29 29 30 30 30 30 31 32 32 32 32 32 32 32 32 33 33 33 34 34 34 34 33 33 32 32 32
26 26 26 25 25 26 25 23 22 23 24 25 25 25 26 27 28 29 30 30 30 31 31 31 32 33 32 32 32 32 33 34 34 35 34 34 34 34 33 32 31 31 31 32
27 26 27 27 27 27 26 24 24 25 25 24 25 27 28 28 29 30 30 31 31 32 32 32 33 33 33 33 34 34 34 35 35 34 34 33 33 32 32 31 30 30 30 30
28 27 27 28 28 27 27 26 26 26 25 26 27 28 29 30 30 31 31 31 31 32 33 33 33 33 34 34 35 35 35 36 35 34 32 32 31 31 30 30 29 29 30 30
28 28 28 28 29 29 28 28 28 27 27 28 29 29 30 30 30 31 31 31 32 33 33 33 33 34 34 34 34 35 35 34 34 32 31 31 30 29 29 29 28 28 29 29
30 30 30 29 29 29 30 30 30 28 28 29 29 31 31 31 31 31 31 31 32 32 33 33 34 33 33 33 33 33 32 32 32 32 31 30 29 28 28 28 27 27 27 27
29 31 32 32 30 30 31 31 30 30 30 30 31 32 31 31 31 31 30 31 31 32 32 33 32 32 32 32 32 31 30 30 30 30 29 28 27 27 26 27 27 27 27 27
28 29 29 30 31 30 30 29 29 30 31 31 31 31 31 32 32 31 31 31 31 31 31 31 31 31 31 31 31 30 29 29 28 28 28 27 26 26 26 26 27 27 27 26
26 27 28 28 28 28 28 29 29 30 30 30 30 30 31 31 31 31 30 30 31 30 30 30 30 30 30 29 28 28 28 28 27 27 27 26 25 25 26 27 28 27 26 24
25 26 26 27 27 26 26 27 28 29 29 29 29 30 30 30 30 30 30 30 30 30 30 29 29 28 27 27 27 27 27 27 27 26 25 25 25 26 27 27 26 25 24 24
24 24 25 26 26 25 25 25 26 27 27 27 28 28 29 29 29 29 29 29 29 29 29 28 27 26 26 26 26 25 26 27 26 26 25 25 26 26 26 25 25 24 24 23
25 25 24 25 25 25 25 25 25 26 26 26 26 26 27 27 27 27 27 28 28 28 27 26 25 25 25 25 25 25 25 25 25 25 25 25 24 24 23 23 24 24 23 23
23 24 24 24 25 25 24 25 25 25 25 24 24 24 24 24 25 25 25 25 25 25 25 24 24 24 24 24 25 25 25 24 25 24 24 24 24 23 23 23 23 23 23 23
22 22 22 23 24 24 24 24 24 24 23 23 23 23 23 23 23 23 24 24 23 23 23 23 23 24 24 24 24 25 25 25 25 24 23 23 23 23 23 23 23 23 23 23
20 20 21 22 22 22 23 23 23 23 22 22 22 23 22 22 22 22 23 23 23 22 23 23 23 23 23 24 24 25 25 26 25 24 23 23 23 23 23 22 22 23 23 23
18 18 19 20 20 21 22 22 22 22 22 22 21 21 21 21 21 21 21 22 22 22 23 23 23 23 23 24 24 25 25 25 24 24 23 23 23 23 22 22 23 23 24 24
18 18 18 19 19 19 20 21 21 21 21 21 21 20 20 20 21 21 21 22 22 22 22 22 22 23 23 24 24 24 24 24 24 24 23 23 23 23 23 23 23 23 24 24
Wind_Direction
237 238 240 239 237 241 243 247 250 257 264 265 270 275 280 283 289 290 294 297 300 303 305 305 306 306 305 303 302 302 302 302 301 302 302 302 301 301 301 301 301 301 300 300
241 242 240 236 237 241 244 247 250 254 255 261 266 269 273 278 283 289 293 296 299 303 304 305 305 306 304 304 303 303 303 303 302 302 303 302 300 299 298 298 298 298 299 299
240 242 241 239 240 242 246 252 252 255 257 261 266 273 276 277 281 288 291 296 301 303 304 304 305 305 304 304 305 305 305 303 302 302 303 303 302 300 299 298 297 297 298 298
241 243 244 242 241 243 245 251 254 257 257 265 271 274 278 281 288 295 296 296 299 300 301 303 302 301 302 303 304 304 304 303 302 301 301 301 301 301 300 298 297 297 297 297
243 245 246 242 244 248 249 252 258 262 266 270 273 274 280 287 291 295 296 298 299 298 300 301 300 300 300 301 302 303 303 302 302 300 300 300 300 300 300 299 298 298 297 297
245 247 246 246 248 252 256 259 262 264 266 271 271 273 283 288 290 293 295 297 298 300 300 300 300 299 299 300 301 301 302 302 301 300 299 299 299 299 299 299 298 298 298 298
247 250 250 248 249 254 256 261 266 267 270 274 274 278 283 287 292 293 295 295 297 300 301 301 301 301 301 301 301 300 300 300 300 299 298 298 298 298 297 297 297 297 297 297
250 251 253 254 252 255 259 263 268 270 274 278 280 280 283 287 291 294 296 296 297 299 300 301 301 301 301 302 301 299 299 299 299 298 298 298 298 297 297 297 296 297 297 296
250 252 254 254 255 257 259 262 267 270 275 278 280 280 283 286 290 293 295 296 297 299 301 300 300 301 300 300 299 299 299 299 298 298 297 297 297 297 297 296 295 295 297 297
248 252 255 255 256 259 261 263 266 269 272 276 277 278 282 285 287 290 293 295 297 298 299 299 300 300 300 299 299 299 299 298 298 297 297 297 296 296 296 295 295 295 296 297
251 255 256 256 257 259 262 263 266 269 271 275 276 278 282 285 287 290 292 294 296 297 298 298 298 299 299 299 298 298 298 297 297 297 296 296 296 296 296 295 294 295 294 296
250 254 257 257 256 259 263 265 268 270 272 275 279 281 283 286 288 290 292 294 295 296 297 297 297 298 298 299 298 298 297 297 297 297 297 296 295 294 295 295 295 295 295 296
248 253 254 256 259 262 265 266 269 270 274 277 280 281 284 287 290 292 293 294 295 296 297 298 298 298 298 299 299 299 298 297 297 297 296 295 294 294 294 294 294 294 295 296
249 252 253 254 258 263 266 268 271 273 276 278 280 280 284 288 290 292 293 294 294 295 297 298 299 299 300 300 300 300 299 299 299 297 296 296 296 296 296 295 295 296 296 297
247 251 255 256 259 262 266 269 270 273 276 279 281 283 286 288 289 290 291 292 293 295 296 297 298 299 300 300 300 301 300 300 300 299 298 298 298 298 297 297 297 298 299 299
245 250 254 257 260 262 265 268 270 273 277 279 282 285 287 288 288 289 291 292 294 295 296 297 298 299 300 301 301 301 301 302 301 300 298 298 298 299 298 299 299 300 302 302
249 252 255 258 260 263 265 268 270 273 277 279 281 284 285 286 289 290 291 292 293 295 297 298 299 300 301 302 302 302 302 303 303 302 300 299 299 299 299 301 302 301 302 302
252 254 256 258 260 264 266 268 271 274 277 279 280 283 285 286 288 290 291 292 293 295 296 298 299 300 301 302 302 302 303 304 305 303 301 300 300 301 302 302 303 302 302 301
252 253 255 259 262 265 267 269 272 275 277 278 280 282 284 285 287 288 289 291 293 295 295 297 298 299 300 301 302 303 304 305 305 303 302 300 299 300 301 302 303 304 303 300
252 255 257 260 264 267 270 272 275 277 279 280 282 283 284 285 286 287 288 290 292 294 295 297 298 299 300 301 302 304 305 305 306 305 304 302 300 300 301 302 303 303 304 302
254 258 261 264 266 269 272 275 277 278 279 282 284 284 284 284 285 287 289 291 292 294 296 298 299 299 300 301 302 304 306 307 307 306 305 303 302 302 303 304 303 303 304 304
257 260 263 265 266 269 273 276 279 280 281 283 285 286 286 286 286 287 290 291 292 294 296 298 299 300 301 302 303 304 306 307 307 306 305 305 305 305 304 304 303 304 304 305
259 261 263 265 267 269 271 274 277 279 281 283 285 286 287 287 287 288 290 292 293 295 297 299 299 300 301 302 303 304 304 305 306 306 305 303 303 304 305 305 305 304 304 304
260 261 263 265 267 269 271 274 276 279 281 284 285 287 288 288 289 290 292 293 294 295 298 299 300 300 301 302 304 304 305 305 305 305 304 304 305 305 305 305 305 305 305 305
260 260 262 265 268 270 272 276 279 280 283 285 286 287 288 288 290 291 293 294 295 296 298 300 300 301 301 303 305 305 305 304 304 303 302 304 305 304 305 305 305 305 304 304
264 266 268 269 270 272 275 278 281 282 284 285 287 288 287 288 289 291 293 295 297 298 298 299 300 301 304 305 305 306 306 305 304 304 304 303 304 304 305 305 306 306 305 304
265 268 271 272 272 274 277 280 281 281 281 284 286 288 289 288 289 291 293 295 297 298 298 298 298 301 303 304 305 307 307 306 306 306 306 305 304 304 304 304 305 305 306 305
Height
5881 5882 5883 5884 5886 5887 5888 5888 5888 5889 5890 5890 5890 5890 5890 5889 5890 5889 5889 5888 5887 5885 5883 5881 5879 5877 5875 5874 5872 5869 5867 5865 5862 5859 5857 5854 5852 5849 5847 5844 5842 5839 5837 5834
5876 5877 5879 5880 5882 5883 5884 5884 5884 5885 5886 5886 5887 5887 5887 5886 5886 5886 5885 5884 5883 5881 5879 5876 5874 5872 5870 5868 5866 5863 5861 5858 5856 5853 5850 5848 5845 5843 5840 5838 5835 5833 5831 5828
5872 5873 5874 5875 5878 5879 5880 5880 5881 5882 5883 5883 5883 5883 5883 5883 5882 5881 5880 5880 5878 5876 5874 5872 5870 5867 5865 5862 5860 5858 5855 5853 5850 5847 5845 5842 5839 5836 5834 5831 5828 5826 5824 5821
5867 5869 5870 5874 5873 5874 5875 5876 5877 5877 5878 5879 5879 5879 5879 5878 5878 5877 5876 5875 5873 5871 5869 5868 5865 5862 5860 5857 5855 5852 5849 5847 5844 5841 5839 5836 5833 5830 5827 5824 5822 5819 5817 5814
5862 5863 5865 5867 5868 5869 5871 5871 5872 5873 5873 5874 5874 5874 5873 5873 5873 5872 5871 5869 5868 5866 5864 5862 5860 5857 5855 5852 5849 5846 5843 5840 5838 5835 5832 5830 5827 5824 5821 5818 5815 5812 5810 5807
5856 5857 5859 5863 5864 5864 5866 5866 5867 5868 5869 5869 5869 5869 5870 5869 5868 5867 5865 5864 5862 5860 5858 5856 5853 5851 5848 5845 5842 5840 5837 5834 5831 5828 5826 5823 5820 5817 5814 5811 5808 5805 5802 5799
5850 5852 5854 5857 5858 5859 5861 5862 5862 5862 5863 5863 5863 5864 5865 5864 5863 5861 5860 5858 5856 5854 5852 5850 5847 5844 5841 5838 5836 5833 5830 5827 5824 5821 5818 5816 5813 5809 5806 5804 5801 5797 5794 5791
5844 5846 5850 5851 5853 5855 5856 5856 5856 5857 5857 5857 5858 5858 5858 5857 5856 5855 5853 5852 5850 5848 5846 5843 5840 5838 5835 5832 5829 5826 5822 5820 5817 5814 5811 5808 5804 5801 5798 5795 5792 5789 5786 5783
5840 5843 5844 5845 5847 5848 5850 5851 5851 5852 5851 5851 5851 5851 5851 5850 5849 5848 5846 5845 5843 5841 5839 5836 5833 5830 5827 5825 5821 5818 5815 5812 5809 5806 5802 5799 5796 5793 5789 5786 5783 5780 5777 5773
5833 5834 5837 5839 5841 5842 5843 5844 5845 5846 5846 5846 5845 5845 5844 5843 5842 5841 5839 5837 5835 5833 5831 5828 5826 5823 5820 5816 5813 5810 5807 5803 5800 5797 5794 5790 5786 5783 5780 5776 5773 5770 5768 5764
5827 5828 5830 5832 5834 5836 5837 5838 5839 5839 5839 5839 5838 5838 5838 5837 5835 5834 5832 5830 5828 5826 5823 5820 5817 5814 5811 5808 5804 5801 5798 5795 5791 5788 5784 5781 5777 5773 5770 5766 5763 5761 5758 5755
5821 5823 5825 5827 5828 5829 5830 5831 5832 5833 5833 5833 5832 5832 5831 5830 5828 5827 5825 5822 5820 5818 5815 5812 5809 5805 5802 5799 5795 5792 5789 5785 5782 5778 5774 5771 5767 5764 5760 5757 5754 5751 5748 5746
5816 5817 5819 5820 5821 5823 5824 5824 5825 5825 5826 5826 5826 5825 5824 5822 5821 5819 5816 5814 5811 5809 5806 5803 5800 5796 5793 5790 5786 5782 5778 5775 5771 5768 5764 5761 5757 5754 5751 5748 5745 5742 5739 5736
5809 5811 5812 5813 5814 5815 5816 5817 5818 5818 5818 5818 5818 5817 5815 5814 5812 5810 5808 5805 5803 5800 5797 5794 5791 5788 5784 5780 5777 5772 5768 5764 5761 5757 5754 5751 5748 5745 5742 5739 5737 5734 5731 5728
5802 5804 5805 5806 5806 5808 5809 5809 5810 5810 5810 5810 5809 5808 5807 5805 5803 5801 5799 5797 5794 5791 5789 5786 5782 5779 5775 5771 5767 5763 5759 5755 5751 5748 5744 5742 5739 5736 5733 5730 5728 5725 5723 5720
5795 5796 5797 5799 5799 5801 5801 5802 5802 5802 5802 5802 5801 5799 5798 5796 5794 5793 5790 5788 5785 5783 5780 5777 5773 5770 5766 5762 5758 5754 5750 5746 5742 5739 5736 5733 5730 5728 5725 5722 5719 5717 5714 5712
5787 5788 5790 5792 5793 5793 5794 5794 5794 5794 5794 5793 5792 5791 5789 5787 5785 5783 5781 5779 5776 5774 5771 5768 5764 5761 5757 5753 5749 5746 5742 5738 5734 5731 5727 5725 5722 5720 5717 5715 5712 5709 5706 5704
5779 5781 5782 5784 5784 5785 5785 5786 5786 5786 5785 5785 5783 5782 5780 5779 5777 5775 5773 5770 5768 5765 5762 5759 5755 5752 5748 5745 5741 5737 5734 5730 5727 5723 5720 5717 5715 5713 5710 5707 5704 5702 5699 5696
5772 5773 5774 5775 5775 5776 5777 5778 5777 5777 5776 5776 5774 5773 5771 5769 5767 5766 5763 5761 5759 5756 5753 5750 5747 5744 5740 5737 5733 5730 5726 5723 5720 5716 5713 5711 5708 5706 5703 5700 5697 5694 5691 5688
5764 5766 5767 5767 5768 5769 5769 5770 5769 5768 5767 5766 5765 5763 5762 5760 5758 5756 5754 5752 5750 5747 5745 5742 5739 5736 5732 5729 5726 5723 5719 5716 5713 5710 5707 5704 5701 5699 5696 5693 5690 5687 5684 5682
5757 5758 5759 5759 5760 5760 5761 5761 5760 5760 5758 5757 5756 5754 5752 5750 5749 5747 5745 5743 5741 5739 5736 5734 5731 5728 5725 5722 5719 5716 5713 5709 5706 5703 5700 5697 5694 5691 5689 5686 5683 5680 5678 5675
5749 5750 5751 5752 5752 5753 5753 5753 5752 5751 5750 5749 5747 5745 5744 5742 5740 5738 5737 5735 5733 5731 5728 5726 5724 5721 5718 5715 5712 5709 5706 5703 5700 5696 5693 5690 5687 5685 5682 5679 5676 5673 5671 5668
5742 5743 5743 5744 5745 5745 5745 5745 5744 5743 5742 5740 5739 5737 5736 5734 5732 5731 5729 5727 5725 5723 5721 5719 5716 5714 5711 5708 5705 5702 5699 5696 5693 5690 5687 5684 5681 5678 5676 5673 5670 5667 5664 5662
5735 5735 5736 5737 5737 5737 5737 5737 5736 5735 5734 5733 5731 5730 5728 5727 5725 5723 5721 5719 5718 5716 5714 5712 5709 5707 5704 5702 5699 5696 5693 5690 5687 5684 5681 5678 5675 5672 5670 5667 5664 5661 5658 5656
5728 5729 5729 5730 5730 5730 5729 5729 5728 5727 5726 5725 5724 5722 5721 5719 5718 5716 5714 5713 5711 5709 5707 5705 5702 5700 5698 5695 5692 5689 5686 5683 5680 5677 5675 5672 5669 5666 5663 5660 5657 5655 5652 5649
5722 5723 5723 5723 5723 5722 5722 5722 5721 5720 5719 5718 5717 5716 5714 5713 5711 5710 5708 5706 5704 5702 5700 5698 5696 5693 5691 5688 5685 5682 5679 5676 5673 5671 5668 5665 5662 5660 5657 5654 5651 5648 5646 5643
5716 5716 5717 5716 5716 5716 5715 5714 5714 5713 5712 5711 5710 5709 5707 5706 5705 5703 5702 5700 5698 5696 5694 5692 5689 5687 5684 5681 5679 5676 5673 5670 5667 5664 5661 5658 5655 5653 5650 5647 5645 5642 5639 5636